Time,TemperatureF,DewpointF,PressureIn,WindDirection,WindDirectionDegrees,WindSpeedMPH,WindSpeedGustMPH,Humidity,HourlyPrecipIn,Conditions,Clouds,dailyrainin,SoftwareType,DateUTC
2013-01-02 00:03:00,47.0,44.0,29.90,West,261,0.0,0.0,89,0.02,,,0.25,,2013-01-02 05:03:00,
2013-01-02 00:12:00,47.0,44.0,29.90,West,261,0.0,0.0,89,0.02,,,0.25,,2013-01-02 05:12:00,
2013-01-02 00:22:00,47.0,44.0,29.90,West,261,0.0,0.0,89,0.02,,,0.26,,2013-01-02 05:22:00,
2013-01-02 00:33:00,47.0,44.0,29.88,West,261,0.0,0.0,89,0.02,,,0.26,,2013-01-02 05:33:00,
2013-01-02 00:42:00,47.0,44.0,29.88,West,261,0.0,0.0,89,0.02,,,0.26,,2013-01-02 05:42:00,
2013-01-02 00:52:00,47.0,44.0,29.88,West,261,0.0,0.0,89,0.02,,,0.27,,2013-01-02 05:52:00,
2013-01-02 01:02:00,46.0,43.0,29.88,West,261,0.0,0.0,89,0.03,,,0.28,,2013-01-02 06:02:00,
2013-01-02 01:12:00,46.0,43.0,29.88,West,261,0.0,0.0,89,0.03,,,0.28,,2013-01-02 06:12:00,
2013-01-02 01:22:00,46.0,43.0,29.87,West,261,0.0,0.0,89,0.02,,,0.28,,2013-01-02 06:22:00,
2013-01-02 01:32:00,46.0,43.0,29.87,West,261,0.0,0.0,89,0.03,,,0.28,,2013-01-02 06:32:00,
2013-01-02 01:42:00,46.0,43.0,29.87,West,261,0.0,0.0,89,0.03,,,0.28,,2013-01-02 06:42:00,
2013-01-02 01:52:00,46.0,43.0,29.85,West,261,0.0,1.0,89,0.03,,,0.30,,2013-01-02 06:52:00,
2013-01-02 02:02:00,46.0,43.0,29.87,West,261,0.0,0.0,89,0.03,,,0.31,,2013-01-02 07:02:00,
2013-01-02 02:12:00,46.0,43.0,29.87,West,261,0.0,0.0,89,0.03,,,0.31,,2013-01-02 07:12:00,
2013-01-02 02:22:00,46.0,43.0,29.86,West,261,0.0,0.0,89,0.03,,,0.31,,2013-01-02 07:22:00,
2013-01-02 02:32:00,46.0,43.0,29.86,West,261,0.0,0.0,89,0.04,,,0.33,,2013-01-02 07:32:00,
2013-01-02 02:42:00,46.0,43.0,29.86,West,261,0.0,0.0,89,0.04,,,0.33,,2013-01-02 07:42:00,
2013-01-02 02:52:00,46.0,43.0,29.88,West,261,0.0,0.0,89,0.05,,,0.35,,2013-01-02 07:52:00,
2013-01-02 03:02:00,46.0,43.0,29.89,West,261,0.0,0.0,90,0.06,,,0.37,,2013-01-02 08:02:00,
2013-01-02 03:12:00,46.0,43.0,29.89,West,261,0.0,0.0,90,0.06,,,0.37,,2013-01-02 08:12:00,
2013-01-02 03:22:00,46.0,43.0,29.89,West,261,0.0,0.0,90,0.06,,,0.37,,2013-01-02 08:22:00,
2013-01-02 03:32:00,46.0,43.0,29.87,West,261,0.0,2.0,90,0.08,,,0.41,,2013-01-02 08:32:00,
2013-01-02 03:42:00,46.0,43.0,29.87,West,261,0.0,2.0,90,0.08,,,0.41,,2013-01-02 08:42:00,
2013-01-02 03:53:00,46.0,43.0,29.88,West,261,0.0,2.0,90,0.06,,,0.41,,2013-01-02 08:53:00,
2013-01-02 04:02:00,46.0,43.0,29.89,ESE,111,0.0,3.0,90,0.05,,,0.42,,2013-01-02 09:02:00,
2013-01-02 04:12:00,46.0,43.0,29.89,ESE,111,0.0,3.0,90,0.05,,,0.42,,2013-01-02 09:12:00,
2013-01-02 04:22:00,45.0,42.0,29.89,SE,130,0.0,2.0,90,0.02,,,0.42,,2013-01-02 09:22:00,
2013-01-02 04:32:00,45.0,42.0,29.88,West,279,0.0,2.0,89,0.01,,,0.42,,2013-01-02 09:32:00,
2013-01-02 04:43:00,45.0,42.0,29.88,West,279,0.0,2.0,89,0.01,,,0.42,,2013-01-02 09:43:00,
2013-01-02 04:52:00,44.0,41.0,29.89,West,279,0.0,1.0,89,0.02,,,0.43,,2013-01-02 09:52:00,
2013-01-02 05:02:00,44.0,41.0,29.90,SSE,163,0.0,2.0,89,0.01,,,0.43,,2013-01-02 10:02:00,
2013-01-02 05:12:00,44.0,41.0,29.90,SSE,163,0.0,2.0,89,0.01,,,0.43,,2013-01-02 10:12:00,
2013-01-02 05:22:00,44.0,41.0,29.90,SSE,163,0.0,2.0,89,0.01,,,0.43,,2013-01-02 10:22:00,
2013-01-02 05:32:00,44.0,41.0,29.91,West,263,0.0,1.0,89,0.01,,,0.43,,2013-01-02 10:32:00,
2013-01-02 05:43:00,44.0,41.0,29.91,West,263,0.0,1.0,89,0.01,,,0.43,,2013-01-02 10:43:00,
2013-01-02 05:53:00,43.0,40.0,29.91,West,263,0.0,2.0,89,0.01,,,0.44,,2013-01-02 10:53:00,
2013-01-02 06:02:00,43.0,40.0,29.91,SSE,161,0.0,2.0,89,0.01,,,0.44,,2013-01-02 11:02:00,
2013-01-02 06:12:00,43.0,40.0,29.91,SSE,161,0.0,2.0,89,0.01,,,0.44,,2013-01-02 11:12:00,
2013-01-02 06:22:00,43.0,40.0,29.92,West,259,0.0,3.0,89,0.01,,,0.44,,2013-01-02 11:22:00,
2013-01-02 06:33:00,43.0,40.0,29.93,West,260,0.0,3.0,89,0.01,,,0.44,,2013-01-02 11:33:00,
2013-01-02 06:42:00,43.0,40.0,29.93,West,260,0.0,3.0,89,0.01,,,0.44,,2013-01-02 11:42:00,
2013-01-02 06:52:00,43.0,40.0,29.93,West,260,0.0,0.0,89,0.00,,,0.44,,2013-01-02 11:52:00,
2013-01-02 07:03:00,43.0,40.0,29.94,West,260,0.0,0.0,89,0.01,,,0.45,,2013-01-02 12:03:00,
2013-01-02 07:12:00,43.0,40.0,29.94,West,260,0.0,0.0,89,0.01,,,0.45,,2013-01-02 12:12:00,
2013-01-02 07:22:00,43.0,40.0,29.95,West,260,0.0,2.0,89,0.01,,,0.45,,2013-01-02 12:22:00,
2013-01-02 07:33:00,43.0,40.0,29.93,West,260,0.0,0.0,89,0.01,,,0.45,,2013-01-02 12:33:00,
2013-01-02 07:43:00,43.0,40.0,29.93,West,260,0.0,0.0,89,0.01,,,0.45,,2013-01-02 12:43:00,
2013-01-02 07:53:00,43.0,40.0,29.94,West,260,0.0,0.0,89,0.01,,,0.45,,2013-01-02 12:53:00,
2013-01-02 08:03:00,43.0,40.0,29.94,West,260,0.0,0.0,89,0.00,,,0.45,,2013-01-02 13:03:00,
2013-01-02 08:12:00,43.0,40.0,29.94,West,260,0.0,0.0,89,0.00,,,0.45,,2013-01-02 13:12:00,
2013-01-02 08:22:00,43.0,40.0,29.95,West,260,0.0,0.0,90,0.00,,,0.45,,2013-01-02 13:22:00,
2013-01-02 08:33:00,43.0,40.0,29.96,West,260,0.0,2.0,90,0.00,,,0.45,,2013-01-02 13:33:00,
2013-01-02 08:43:00,43.0,40.0,29.96,West,260,0.0,2.0,90,0.00,,,0.45,,2013-01-02 13:43:00,
2013-01-02 08:52:00,43.0,40.0,29.97,West,260,0.0,0.0,90,0.00,,,0.45,,2013-01-02 13:52:00,
2013-01-02 09:02:00,43.0,40.0,29.98,West,260,0.0,2.0,90,0.00,,,0.45,,2013-01-02 14:02:00,
2013-01-02 09:12:00,43.0,40.0,29.98,West,260,0.0,2.0,90,0.00,,,0.45,,2013-01-02 14:12:00,
2013-01-02 09:22:00,43.0,40.0,29.99,NNW,347,0.0,1.0,90,0.00,,,0.45,,2013-01-02 14:22:00,
2013-01-02 09:33:00,43.0,40.0,29.99,WNW,296,0.0,2.0,90,0.00,,,0.44,,2013-01-02 14:33:00,
2013-01-02 09:43:00,43.0,40.0,29.99,WNW,296,0.0,2.0,90,0.00,,,0.44,,2013-01-02 14:43:00,
2013-01-02 09:53:00,43.0,40.0,30.01,WNW,296,0.0,2.0,90,0.00,,,0.44,,2013-01-02 14:53:00,
2013-01-02 10:03:00,43.0,40.0,30.01,WNW,288,0.0,4.0,90,0.00,,,0.44,,2013-01-02 15:03:00,
2013-01-02 10:12:00,43.0,40.0,30.01,WNW,288,0.0,4.0,90,0.00,,,0.44,,2013-01-02 15:12:00,
2013-01-02 10:23:00,43.0,40.0,30.02,West,269,0.0,5.0,88,0.00,,,0.44,,2013-01-02 15:23:00,
2013-01-02 10:33:00,43.0,39.0,30.02,SSE,163,0.0,3.0,87,0.00,,,0.42,,2013-01-02 15:33:00,
2013-01-02 10:43:00,43.0,39.0,30.02,SSE,163,0.0,3.0,87,0.00,,,0.42,,2013-01-02 15:43:00,
2013-01-02 10:53:00,44.0,40.0,30.03,South,178,0.0,3.0,85,0.00,,,0.42,,2013-01-02 15:53:00,
2013-01-02 11:03:00,44.0,39.0,30.03,East,90,0.0,2.0,84,0.00,,,0.42,,2013-01-02 16:03:00,
2013-01-02 11:13:00,44.0,39.0,30.03,East,90,0.0,2.0,84,0.00,,,0.42,,2013-01-02 16:13:00,
2013-01-02 11:22:00,44.0,39.0,30.03,WSW,238,0.0,3.0,81,0.00,,,0.42,,2013-01-02 16:22:00,
2013-01-02 11:33:00,43.0,38.0,30.03,SSE,165,0.0,3.0,81,0.00,,,0.42,,2013-01-02 16:33:00,
2013-01-02 11:43:00,43.0,38.0,30.03,SSE,165,0.0,3.0,81,0.00,,,0.42,,2013-01-02 16:43:00,
2013-01-02 11:53:00,43.0,37.0,30.02,ENE,70,0.0,2.0,79,0.00,,,0.42,,2013-01-02 16:53:00,
2013-01-02 12:03:00,43.0,37.0,30.02,NNE,20,0.0,2.0,80,0.00,,,0.42,,2013-01-02 17:03:00,
2013-01-02 12:13:00,43.0,37.0,30.02,NNE,20,0.0,2.0,80,0.00,,,0.42,,2013-01-02 17:13:00,
2013-01-02 12:23:00,44.0,38.0,30.01,ENE,76,0.0,3.0,79,0.00,,,0.42,,2013-01-02 17:23:00,
2013-01-02 12:33:00,44.0,38.0,30.01,West,277,0.0,2.0,79,0.00,,,0.42,,2013-01-02 17:33:00,
2013-01-02 12:43:00,44.0,38.0,30.01,West,277,0.0,2.0,79,0.00,,,0.42,,2013-01-02 17:43:00,
2013-01-02 12:53:00,44.0,37.0,30.01,ESE,116,1.0,2.0,77,0.00,,,0.42,,2013-01-02 17:53:00,
2013-01-02 13:03:00,45.0,38.0,30.00,SSE,163,2.0,5.0,75,0.00,,,0.42,,2013-01-02 18:03:00,
2013-01-02 13:13:00,45.0,38.0,30.00,SSE,163,2.0,5.0,75,0.00,,,0.42,,2013-01-02 18:13:00,
2013-01-02 13:23:00,44.0,37.0,29.98,South,180,0.0,2.0,75,0.00,,,0.42,,2013-01-02 18:23:00,
2013-01-02 13:33:00,44.0,36.0,29.99,West,274,0.0,3.0,74,0.00,,,0.42,,2013-01-02 18:33:00,
2013-01-02 13:43:00,44.0,36.0,29.99,West,274,0.0,3.0,74,0.00,,,0.42,,2013-01-02 18:43:00,
2013-01-02 13:53:00,44.0,37.0,29.99,ESE,111,0.0,3.0,75,0.00,,,0.42,,2013-01-02 18:53:00,
2013-01-02 14:03:00,44.0,37.0,29.98,ESE,103,0.0,3.0,75,0.00,,,0.42,,2013-01-02 19:03:00,
2013-01-02 14:13:00,44.0,37.0,29.98,ESE,103,0.0,3.0,75,0.00,,,0.42,,2013-01-02 19:13:00,
2013-01-02 14:23:00,44.0,37.0,29.98,ESE,103,0.0,3.0,75,0.00,,,0.42,,2013-01-02 19:23:00,
2013-01-02 14:33:00,44.0,36.0,29.99,East,91,0.0,2.0,74,0.00,,,0.41,,2013-01-02 19:33:00,
2013-01-02 14:43:00,44.0,36.0,29.99,East,91,0.0,2.0,74,0.00,,,0.41,,2013-01-02 19:43:00,
2013-01-02 14:53:00,44.0,34.0,30.00,WNW,286,1.0,5.0,69,0.00,,,0.41,,2013-01-02 19:53:00,
2013-01-02 15:03:00,45.0,35.0,30.00,ENE,62,0.0,2.0,69,0.00,,,0.41,,2013-01-02 20:03:00,
2013-01-02 15:12:00,45.0,35.0,30.00,ENE,62,0.0,2.0,69,0.00,,,0.41,,2013-01-02 20:12:00,
2013-01-02 15:23:00,44.0,36.0,30.01,ENE,63,0.0,1.0,72,0.00,,,0.41,,2013-01-02 20:23:00,
2013-01-02 15:33:00,44.0,35.0,30.01,West,273,0.0,4.0,70,0.00,,,0.40,,2013-01-02 20:33:00,
2013-01-02 15:42:00,44.0,35.0,30.01,West,273,0.0,4.0,70,0.00,,,0.40,,2013-01-02 20:42:00,
2013-01-02 15:53:00,44.0,35.0,30.02,West,273,0.0,1.0,70,0.00,,,0.40,,2013-01-02 20:53:00,
2013-01-02 16:03:00,44.0,35.0,30.03,West,273,0.0,1.0,71,0.00,,,0.40,,2013-01-02 21:03:00,
2013-01-02 16:13:00,44.0,35.0,30.03,West,273,0.0,1.0,71,0.00,,,0.40,,2013-01-02 21:13:00,
2013-01-02 16:23:00,44.0,36.0,30.03,WSW,237,0.0,0.0,73,0.00,,,0.40,,2013-01-02 21:23:00,
2013-01-02 16:33:00,44.0,36.0,30.03,SW,234,0.0,2.0,72,0.00,,,0.39,,2013-01-02 21:33:00,
2013-01-02 16:43:00,44.0,36.0,30.03,SW,234,0.0,2.0,72,0.00,,,0.39,,2013-01-02 21:43:00,
2013-01-02 16:52:00,44.0,36.0,30.04,ENE,76,0.0,2.0,73,0.00,,,0.39,,2013-01-02 21:52:00,
2013-01-02 17:03:00,44.0,36.0,30.04,ENE,76,0.0,2.0,74,0.00,,,0.39,,2013-01-02 22:03:00,
2013-01-02 17:12:00,44.0,36.0,30.04,ENE,76,0.0,2.0,74,0.00,,,0.39,,2013-01-02 22:12:00,
2013-01-02 17:22:00,43.0,36.0,30.04,ENE,76,0.0,1.0,75,0.00,,,0.39,,2013-01-02 22:22:00,
2013-01-02 17:32:00,43.0,36.0,30.04,ENE,76,0.0,0.0,76,0.00,,,0.37,,2013-01-02 22:32:00,
2013-01-02 17:42:00,43.0,36.0,30.04,ENE,76,0.0,0.0,76,0.00,,,0.37,,2013-01-02 22:42:00,
2013-01-02 17:52:00,43.0,36.0,30.05,ENE,76,0.0,0.0,76,0.00,,,0.37,,2013-01-02 22:52:00,
2013-01-02 18:03:00,43.0,36.0,30.05,ENE,76,0.0,0.0,77,0.00,,,0.37,,2013-01-02 23:03:00,
2013-01-02 18:13:00,43.0,36.0,30.05,ENE,76,0.0,0.0,77,0.00,,,0.37,,2013-01-02 23:13:00,
2013-01-02 18:23:00,42.0,36.0,30.05,ENE,76,0.0,0.0,78,0.00,,,0.37,,2013-01-02 23:23:00,
2013-01-02 18:33:00,42.0,36.0,30.05,ENE,76,0.0,0.0,78,0.00,,,0.34,,2013-01-02 23:33:00,
2013-01-02 18:42:00,42.0,36.0,30.05,ENE,76,0.0,0.0,78,0.00,,,0.34,,2013-01-02 23:42:00,
2013-01-02 18:52:00,42.0,36.0,30.06,ENE,76,0.0,0.0,79,0.00,,,0.34,,2013-01-02 23:52:00,
2013-01-02 19:02:00,42.0,36.0,30.08,ENE,76,0.0,0.0,79,0.00,,,0.34,,2013-01-03 00:02:00,
2013-01-02 19:12:00,42.0,36.0,30.08,ENE,76,0.0,0.0,79,0.00,,,0.34,,2013-01-03 00:12:00,
2013-01-02 19:22:00,41.0,35.0,30.06,ENE,76,0.0,0.0,80,0.00,,,0.34,,2013-01-03 00:22:00,
2013-01-02 19:38:00,41.0,36.0,30.08,ENE,76,0.0,0.0,81,0.00,,,0.32,,2013-01-03 00:38:00,
2013-01-02 19:52:00,41.0,36.0,30.09,ENE,76,0.0,0.0,82,0.00,,,0.32,,2013-01-03 00:52:00,
2013-01-02 20:02:00,41.0,36.0,30.09,ENE,76,0.0,0.0,82,0.00,,,0.32,,2013-01-03 01:02:00,
2013-01-02 20:12:00,41.0,36.0,30.09,ENE,76,0.0,0.0,82,0.00,,,0.32,,2013-01-03 01:12:00,
2013-01-02 20:22:00,40.0,35.0,30.09,ENE,76,0.0,0.0,82,0.00,,,0.32,,2013-01-03 01:22:00,
2013-01-02 20:33:00,40.0,35.0,30.10,ENE,76,0.0,0.0,82,0.00,,,0.30,,2013-01-03 01:33:00,
2013-01-02 20:43:00,40.0,35.0,30.10,ENE,76,0.0,0.0,82,0.00,,,0.30,,2013-01-03 01:43:00,
2013-01-02 20:52:00,40.0,35.0,30.09,ENE,76,0.0,0.0,83,0.00,,,0.30,,2013-01-03 01:52:00,
2013-01-02 21:02:00,40.0,36.0,30.08,ENE,76,0.0,1.0,84,0.00,,,0.30,,2013-01-03 02:02:00,
2013-01-02 21:12:00,40.0,36.0,30.08,ENE,76,0.0,1.0,84,0.00,,,0.30,,2013-01-03 02:12:00,
2013-01-02 21:23:00,40.0,36.0,30.09,ENE,76,0.0,0.0,84,0.00,,,0.30,,2013-01-03 02:23:00,
2013-01-02 21:33:00,40.0,36.0,30.09,ENE,76,0.0,0.0,85,0.00,,,0.27,,2013-01-03 02:33:00,
2013-01-02 21:42:00,40.0,36.0,30.09,ENE,76,0.0,0.0,85,0.00,,,0.27,,2013-01-03 02:42:00,
2013-01-02 21:52:00,40.0,36.0,30.09,ENE,76,0.0,0.0,85,0.00,,,0.27,,2013-01-03 02:52:00,
2013-01-02 22:02:00,39.0,35.0,30.09,ENE,76,0.0,0.0,85,0.00,,,0.27,,2013-01-03 03:02:00,
2013-01-02 22:12:00,39.0,35.0,30.10,ENE,76,0.0,0.0,85,0.00,,,0.27,,2013-01-03 03:12:00,
2013-01-02 22:22:00,39.0,35.0,30.10,ENE,76,0.0,0.0,85,0.00,,,0.27,,2013-01-03 03:22:00,
2013-01-02 22:46:00,39.0,35.0,30.09,ENE,76,0.0,1.0,86,0.00,,,0.22,,2013-01-03 03:46:00,
2013-01-02 22:52:00,39.0,35.0,30.11,ENE,76,0.0,0.0,86,0.00,,,0.22,,2013-01-03 03:52:00,
2013-01-02 23:03:00,39.0,35.0,30.11,ENE,76,0.0,0.0,86,0.00,,,0.22,,2013-01-03 04:03:00,
2013-01-02 23:12:00,39.0,35.0,30.11,ENE,76,0.0,0.0,86,0.00,,,0.22,,2013-01-03 04:12:00,
2013-01-02 23:22:00,39.0,35.0,30.11,ENE,76,0.0,0.0,86,0.00,,,0.22,,2013-01-03 04:22:00,
2013-01-02 23:32:00,39.0,35.0,30.12,ENE,76,0.0,0.0,86,0.00,,,0.21,,2013-01-03 04:32:00,
2013-01-02 23:42:00,39.0,35.0,30.12,ENE,76,0.0,0.0,86,0.00,,,0.21,,2013-01-03 04:42:00,
2013-01-02 23:52:00,39.0,35.0,30.12,ENE,76,0.0,0.0,86,0.00,,,0.21,,2013-01-03 04:52:00,